Regional Weather Roundup
Issued by NWS

Home | Current Version | Previous Version | Graphics & Text | Print | Product List | Glossary On
Versions: 1 2 3 4 5 6 7 8 9 10 11 12 13 14 15 16 17 18 19 20 21 22 23 24 25 26 27 28 29 30 31 32 33 34 35 36 37 38 39 40 41 42 43 44 45 46 47 48 49 50
000
ASUS43 KMPX 180001
RWRMN
WEATHER ROUNDUP FOR MINNESOTA
NATIONAL WEATHER SERVICE TWIN CITIES/CHANHASSEN MN
700 PM CDT TUE OCT 17 2017


NOTE: "FAIR" INDICATES FEW OR NO CLOUDS BELOW 12,000 FEET WITH NO
SIGNIFICANT WEATHER AND/OR OBSTRUCTIONS TO VISIBILITY. N/A MEANS
CURRENT SKY AND/OR WEATHER CONDITIONS ARE NOT AVAILABLE.

MNZ060>063-068>070-180100-
   Twin Cities Metro

CITY           SKY/WX    TMP DP  RH WIND       PRES   REMARKS
TWIN CITIES    PTCLDY    66  42  41 S6        29.92S
6HR MIN TEMP:  65; 6HR MAX TEMP:  73;

ST PAUL        CLEAR     59  48  67 E3        29.93S
CRYSTAL        CLEAR     61  43  51 SE3       29.90F
BLAINE         PTCLDY    61  46  59 S5        29.91F
LAKEVILLE      CLEAR     54  45  71 CALM      29.93F
EDEN PRAIRIE   CLEAR     65  41  41 SE6       29.91S
6HR MIN TEMP:  64; 6HR MAX TEMP:  74;

SOUTH ST PAUL  CLEAR     61  46  57 CALM      29.92F
LAKE ELMO      FAIR      59  46  63 CALM      29.93F
$$
MNZ001>005-007-008-013>017-022>024-027-028-180100-
   Northwest Minnesota

CITY           SKY/WX    TMP DP  RH WIND       PRES   REMARKS
BEMIDJI        CLEAR     61  38  42 S8        29.76F
HALLOCK        CLOUDY    63  28  27 S7        29.62F
ROSEAU         CLOUDY    63  45  51 S13       29.65F
WARROAD        CLOUDY    64  43  45 S7        29.67S
CROOKSTON      CLEAR     68  39  34 SW16      29.69S
FOSSTON        CLEAR     63  39  42 S13       29.74F
DETROIT LAKES  CLEAR     61  41  48 S8        29.79F
MOORHEAD       CLEAR     68  39  34 S12       29.75F
PARK RAPIDS    CLEAR     61  41  47 S10       29.80F
MAHNOMEN       FAIR      61  42  49 S10       29.75S
$$
MNZ006-009>011-018-025>026-180100-
   North Central Minnesota

CITY           SKY/WX    TMP DP  RH WIND       PRES   REMARKS
BAUDETTE       CLOUDY    63  37  38 S10       29.70F
FLAG ISLAND    CLOUDY    54  46  76 S10       29.64F
INTL FALLS     CLOUDY    61  37  41 S5        29.74F
6HR MIN TEMP:  61; 6HR MAX TEMP:  72;

WASKISH        CLEAR     64  37  36 S5        29.74S
BIG FORK       CLEAR     57  37  47 S5        29.79S
LONGVILLE      CLEAR     57  39  51 S6        29.82S
GRAND RAPIDS   CLEAR     61  39  44 S8        29.84F
CRANE LAKE     CLEAR     50  39  66 CALM      29.81F
ORR            CLEAR     57  34  41 S6        29.78S
COOK           CLEAR     61  36  39 S5        29.82F
WALKER         FAIR      64  38  38 S8        29.79F
$$
MNZ012-019>021-037-180100-
   Northeast Minnesota

CITY           SKY/WX    TMP DP  RH WIND       PRES   REMARKS
DULUTH         CLEAR     58  40  51 S8        29.88S
6HR MIN TEMP:  58; 6HR MAX TEMP:  68;

ELY            CLEAR     59  36  41 S6        29.84S
HIBBING        CLEAR     58  37  45 S5        29.83F
EVELETH        CLEAR     58  20  22 S5        29.86S
DULUTH HARBOR  CLEAR     61  46  59 S7        29.88S
TWO HARBORS    CLEAR     61  45  55 CALM      29.86S
GRAND MARAIS     N/A     48  45  89 CALM      29.89R
G MARAIS ARPRT CLEAR     50  36  57 S3        29.91R
$$
MNZ029>031-032-039>041-046>048-054>057-064-180100-
   West Central Minnesota

CITY           SKY/WX    TMP DP  RH WIND       PRES   REMARKS
FERGUS FALLS   CLEAR     63  41  45 S7        29.80S
WHEATON        CLEAR     66  39  37 S7        29.82S
MORRIS         CLEAR     61  43  51 S7        29.83S
ALEXANDRIA     CLEAR     62  39  42 S8        29.86F
ELBOW LAKE     FAIR      56  43  61 S7        29.83S
WADENA         CLEAR     57  43  58 S6        29.82F
GLENWOOD       CLEAR     61  43  51 S8        29.87S
APPLETON       CLEAR     70  36  28 S6        29.84F
BENSON         CLEAR     66  37  34 S7        29.87S
ORTONVILLE     CLEAR     66  41  39 N5        29.83F
MADISON        CLEAR     66  37  34 S7        29.86S
WILLMAR        FAIR      63  39  42 SE3       29.89S
$$
MNZ033>034-036-042>043-049>051-058-059-180100-
   Central Minnesota

CITY           SKY/WX    TMP DP  RH WIND       PRES   REMARKS
ST CLOUD       CLEAR     62  43  49 SE7       29.88F
6HR MIN TEMP:  60; 6HR MAX TEMP:  73;

SAUK CENTRE    FAIR      58  43  56 SE7       29.86F
PAYNESVILLE    CLEAR     66  41  40 S6        29.89S
AITKIN         CLEAR     54  37  54 S6        29.85S
PINE RIVER     CLEAR     61  37  41 S6        29.87S
BRAINERD       CLEAR     59  39  47 S9        29.85F
STAPLES        CLEAR     61  37  41 S5        29.84F
LONG PRAIRIE   FAIR      55  41  58 SE6       29.86F
LITTLE FALLS   CLEAR     61  32  33 SE5       29.87F
LITCHFIELD     CLEAR     64  43  45 CALM      29.90S
BUFFALO        CLEAR     63  39  42 SE3       29.91S
MAPLE LAKE     CLEAR     60  44  56 CALM      29.90F
HUTCHINSON     CLOUDY    58  44  58 CALM      29.92S
$$
MNZ037-044-045-052-053-180100-
   East Central Minnesota

CITY           SKY/WX    TMP DP  RH WIND       PRES   REMARKS
PRINCETON      CLEAR     59  45  58 SE3       29.90S
MORA           CLEAR     61  41  48 S3        29.91F
CAMBRIDGE      CLEAR     63  46  55 CALM      29.91S
RUSH CITY      PTCLDY    60  42  52 S5        29.91S
MOOSE LAKE     CLEAR     59  41  51 CALM      29.87S
HINCKLEY       FAIR      61  43  51 SE3       29.90S
CLOQUET        CLEAR     63  36  36 S3        29.88F
MCGREGOR       CLEAR     57  41  54 S6        29.87S
$$
MNZ071>073-080-081-089-090-097-098-180100-
   Southwest Minnesota

CITY           SKY/WX    TMP DP  RH WIND       PRES   REMARKS
MONTEVIDEO     CLEAR     64  37  36 SW5       29.87S
GRANITE FALLS  CLEAR     63  41  44 S8        29.89S
CANBY          CLEAR     69  37  30 SW5       29.87F
MARSHALL       CLEAR     66  39  37 S8        29.89S
REDWOOD FALLS  CLEAR     65  40  39 S8        29.89S
OLIVIA         CLEAR     61  43  51 S6        29.89S
PIPESTONE      CLEAR     63  43  48 S7        29.92S
WORTHINGTON    CLEAR     63  40  42 S6        29.95S
JACKSON        CLEAR     63  36  36 S5        29.96S
TRACY          CLEAR     67  42  41 S6        29.91S
SLAYTON        CLEAR    N/A N/A N/A S8        29.94S
$$
MNZ065>067-074>077-082>085-091>093-180100-
   South Central Minnesota

CITY           SKY/WX    TMP DP  RH WIND       PRES   REMARKS
MANKATO        CLEAR     68  38  33 S6        29.94R
NEW ULM        CLEAR     64  36  34 S5        29.92S
ST JAMES       CLEAR     64  36  34 S5        29.95R
FAIRMONT       CLEAR     63  41  44 S8        29.95S
GLENCOE        CLEAR     62  43  50 CALM      29.91S
FARIBAULT      CLEAR     64  43  45 CALM      29.95S
OWATONNA       CLEAR     63  46  55 S8        29.96R
WASECA         CLEAR     63  41  45 S7        29.96S
ALBERT LEA     CLEAR     64  46  52 S5        29.98R
$$
MNZ078>079-086>088-094>096-180100-
   Southeast Minnesota

CITY           SKY/WX    TMP DP  RH WIND       PRES   REMARKS
ROCHESTER      CLEAR     57  46  66 S8        29.99R
6HR MIN TEMP:  57; 6HR MAX TEMP:  73;

RED WING       CLEAR     57  45  62 CALM      29.94R
STANTON        CLEAR     62  43  49 S3        29.93S
DODGE CENTER   CLEAR     57  45  62 S6        29.98S
WINONA         CLEAR     59  48  67 CALM      29.98R
AUSTIN         CLEAR     63  43  48 S5        29.98S
PRESTON        CLEAR     61  43  52 S8        30.00S
$$
ABBREVIATIONS USED IN REMARKS
   TC - TEMPERATURES IN CELSIUS
  WCI - WIND CHILL INDEX
   HX - HEAT INDEX
  VSB - VISIBILITY
$$




USA.gov is the U.S. government's official web portal to all federal, state and local government web resources and services.